www.pogodaiklimat.ru

Погода и климат >> Архив погоды >> Австралия >> Южная Австралия >> Ли-Крик


ПОГОДА в Ли-Крике

  • Прогноз погоды в Ли-Крике
  • Монитор погоды в Ли-Крике

АРХИВ ПОГОДЫ в Ли-Крике

Время (UTC), дата Ветер
(напр.,м/с)
 
Видим.   Явления Облачность Т
(С)
Тd
(С)
f
(%)
Тe
(С)
Тes
(С)
Комфортность P
(гПа)
Po
(гПа)
Тmin
(С)
Tmax
(С)
R
(мм)
R24
(мм)
S
(см)
19 16.09 ЮВ 4 н/о н/о +8.5 -0.5 53 +6 +6 1022.4 991.8
20 16.09 ЮВ 3 н/о н/о +8.1 -0.4 55 +6 +6 1022.9 992.3
22 16.09 В 7 н/о н/о +10.3 -1.1 45 +7 +7 1024.3 993.6
23 16.09 В 10 н/о н/о +11.6 -2.2 38 +8 +8 1024.9 994.2
01 17.09 ЮВ 5 н/о н/о +14.6 -2.8 30 +13 +13 1025.2 994.5
02 17.09 В 6 н/о н/о +16.2 -3.8 25 +15 +15 1024.7 994.0 +7.2
04 17.09 В 5 н/о н/о +18.7 -6.8 17 +18 +18 1023.4 992.8
05 17.09 В 4 н/о н/о +19.5 -7.8 15 +19 +19 1023.0 992.4
07 17.09 ЮЗ 2 н/о н/о +20.2 -8.1 14 +20 +20 1022.6 992.0
08 17.09 В 5 н/о н/о +19.2 -8.0 15 +19 +19 1022.9 992.3
10 17.09 В 5 н/о н/о +14.5 -8.8 19 +13 +13 1024.8 994.1
11 17.09 В 5 н/о н/о +13.0 -8.8 21 +11 +11 1025.1 994.4
13 17.09 ЮВ 5 н/о н/о +11.5 -10.0 21 +10 +10 1025.4 994.7
14 17.09 В 5 н/о н/о +11.2 -10.3 21 +9 +9 1024.9 994.2 +21.0
16 17.09 В 5 н/о н/о +10.6 -9.6 23 +8 +8 1024.6 993.9
17 17.09 В 5 н/о н/о +9.7 -7.9 28 +7 +7 1024.1 993.4
19 17.09 В 7 н/о н/о +9.7 -6.6 31 +7 +7 1023.6 992.9
20 17.09 В 6 н/о н/о +9.0 -6.8 32 +6 +6 1023.9 993.2
22 17.09 В 4 н/о н/о +12.7 -5.8 27 +11 +11 1024.7 994.0
23 17.09 В 5 н/о н/о +15.8 -6.5 21 +15 +15 1024.6 993.9
01 18.09 С 3 н/о н/о +18.2 -8.8 15 +18 +18 1023.9 993.2
02 18.09 С 3 н/о н/о +20.8 -8.6 13 +20 +20 1023.6 992.9 +8.3
04 18.09 С 3 н/о н/о +23.0 -10.2 10 +21 +21 комфорт 1022.1 991.5
05 18.09 С 2 н/о н/о +23.2 -10.1 10 +21 +21 комфорт 1021.0 990.4
07 18.09 С 5 н/о н/о +23.7 -8.5 11 +21 +21 комфорт 1019.8 989.3
08 18.09 С 6 н/о н/о +22.7 -7.1 13 +21 +21 комфорт 1019.7 989.2
10 18.09 С 5 н/о н/о +18.7 -5.4 19 +18 +18 1020.5 989.9
11 18.09 С 6 н/о н/о +18.3 -4.4 21 +18 +18 1020.7 990.1
13 18.09 С 5 н/о н/о +15.8 -3.6 26 +15 +15 1020.3 989.7
14 18.09 С 4 н/о н/о +14.4 -3.4 29 +13 +13 1020.0 989.5 +24.5
16 18.09 С 6 н/о н/о +15.4 -4.0 26 +14 +14 1018.6 988.1
17 18.09 СВ 5 н/о н/о +15.1 -3.7 27 +14 +14 1017.5 987.0
19 18.09 С 7 н/о н/о +16.2 -3.8 25 +15 +15 1016.7 986.3
20 18.09 С 8 н/о н/о +16.2 -3.8 25 +15 +15 1017.2 986.7
22 18.09 С 10 н/о н/о +17.4 -0.3 30 +16 +16 1017.0 986.5
23 18.09 С 13 н/о н/о +19.1 -0.8 26 +18 +18 1017.4 986.9
01 19.09 С 13 н/о н/о +24.3 -5.8 13 +22 +22 комфорт 1017.1 986.6
02 19.09 С 12 н/о н/о +24.7 -10.3 9 +22 +22 комфорт 1015.9 985.5 +13.6
04 19.09 С 12 н/о н/о +28.9 -10.3 7 +25 +25 комфорт 1013.8 983.4
05 19.09 С 12 н/о н/о +29.5 -9.9 7 +26 +26 жарко 1012.5 982.2
07 19.09 С 12 н/о н/о +29.7 -9.7 7 +26 +26 жарко 1011.4 981.1
08 19.09 С 12 н/о н/о +28.8 -10.4 7 +25 +25 комфорт 1011.5 981.2
10 19.09 С 8 н/о н/о +26.1 -10.7 8 +23 +23 комфорт 1011.9 981.6
11 19.09 С 8 н/о н/о +25.3 -11.3 8 +22 +22 комфорт 1012.2 981.9
13 19.09 СВ 11 н/о н/о +24.9 -11.6 8 +22 +22 комфорт 1011.1 980.8
14 19.09 СВ 11 н/о н/о +25.2 -11.4 8 +22 +22 комфорт 1010.9 980.6 +30.8
16 19.09 СВ 13 н/о н/о +25.3 -9.8 9 +22 +22 комфорт 1009.8 979.6
17 19.09 СВ 12 н/о н/о +24.3 -9.2 10 +22 +22 комфорт 1009.3 979.1
19 19.09 С 12 н/о н/о +23.6 -8.5 11 +21 +21 комфорт 1009.3 979.1
20 19.09 С 9 н/о н/о +23.2 -8.9 11 +21 +21 комфорт 1010.5 980.2
22 19.09 С 9 н/о н/о +22.6 -8.2 12 +21 +21 комфорт 1011.5 981.2
23 19.09 С 10 н/о н/о +24.9 -10.1 9 +22 +22 комфорт 1011.4 981.1
01 20.09 С 9 н/о н/о +26.6 -10.3 8 +23 +23 комфорт 1011.2 980.9
02 20.09 СЗ 12 н/о н/о +27.8 -11.1 7 +24 +24 комфорт 1010.5 980.2 +20.6
04 20.09 С 8 н/о н/о +27.7 -11.2 7 +24 +24 комфорт 1009.1 978.9
05 20.09 ЮЗ 9 н/о н/о +24.0 +2.8 25 +23 +23 комфорт 1009.0 978.8
07 20.09 Ю 12 н/о н/о +18.8 +7.3 47 +18 +18 1010.8 980.5
08 20.09 ЮЗ 13 н/о н/о +14.9 +9.5 70 +12 +12 1012.6 982.3
10 20.09 Ю 10 н/о н/о +10.6 +9.8 95 +6 +6 1013.9 983.5
11 20.09 ЮЗ 11 н/о туман местами н/о +10.3 +9.7 96 +5 +5 1014.4 984.0 3
13 20.09 Ю 8 н/о н/о +9.9 +9.8 99 +6 +6 1014.9 984.5
14 20.09 ЮЗ 9 н/о {туман} н/о +9.6 +9.5 99 +5 +5 1014.9 984.5 +29.6
16 20.09 ЮЗ 8 н/о н/о +9.0 +6.6 85 +5 +5 1015.9 985.5
17 20.09 ЮЗ 8 н/о {туман} н/о +9.0 +6.8 86 +5 +5 1015.7 985.3 2
19 20.09 Ю 5 н/о н/о +8.1 +5.4 83 +4 +4 1016.6 986.2
20 20.09 ЮВ 3 н/о н/о +7.6 +6.1 90 +5 +5 1017.6 987.1
22 20.09 ЮЗ 7 н/о н/о +8.6 +5.5 81 +4 +4 1019.7 989.2
23 20.09 ЮЗ 7 н/о н/о +10.2 +6.5 78 +7 +7 1019.9 989.4 6
01 21.09 Ю 8 н/о н/о +12.6 +6.0 64 +10 +10 1021.3 990.7
02 21.09 ЮЗ 6 н/о {туман} н/о +13.2 +5.4 59 +11 +11 1021.4 990.8 +7.3
04 21.09 З 4 н/о н/о +14.3 +4.6 52 +13 +13 1021.5 990.9
05 21.09 ЮЗ 5 н/о {туман} н/о +15.4 +1.5 39 +14 +14 1021.1 990.5 0.2
07 21.09 ЮЗ 5 н/о н/о +15.5 +1.6 39 +15 +15 1021.2 990.6
08 21.09 ЮЗ 5 н/о н/о +15.4 +0.8 37 +14 +14 1021.6 991.0
10 21.09 ЮЗ 4 н/о н/о +13.4 +0.8 42 +12 +12 1022.8 992.2
11 21.09 ЮЗ 4 н/о н/о +12.5 +1.5 47 +11 +11 1023.6 992.9
13 21.09 Ю 4 н/о н/о +10.8 +3.4 60 +9 +9 1024.2 993.5
14 21.09 ЮВ 2 н/о н/о +9.3 +3.9 69 +8 +8 1024.6 993.9 +17.2
16 21.09 Ю 3 н/о н/о +7.9 +4.7 80 +6 +6 1024.5 993.8
17 21.09 Ю 3 н/о н/о +7.4 +4.9 84 +5 +5 1024.4 993.7
19 21.09 Ю 2 н/о н/о +6.2 +3.9 85 +4 +4 1024.8 994.1
20 21.09 Ю 3 н/о н/о +5.4 +3.7 89 +2 +2 1025.6 994.9
22 21.09 Ю 2 н/о н/о +7.7 +4.7 81 +6 +6 1027.2 996.4
23 21.09 ЮВ 3 н/о н/о +11.9 +4.4 60 +11 +11 1027.8 997.0 0.2
01 22.09 ЮЗ 6 н/о н/о +15.4 +1.9 40 +14 +14 1027.9 997.1
02 22.09 ЮЗ 5 н/о н/о +15.8 0.0 34 +15 +15 1027.7 996.9 +4.8
04 22.09 З 5 н/о н/о +17.3 +1.3 34 +17 +17 1026.5 995.8
05 22.09 ЮЗ 4 н/о н/о +17.9 +1.4 33 +18 +18 1026.1 995.4
07 22.09 З 6 н/о н/о +17.8 -0.5 29 +17 +17 1025.5 994.8
08 22.09 З 6 н/о н/о +17.6 -0.2 30 +17 +17 1025.7 995.0
10 22.09 ЮЗ 4 н/о н/о +15.1 -0.2 35 +14 +14 1027.1 996.3
11 22.09 Ю 4 н/о н/о +13.8 +1.5 43 +13 +13 1027.8 997.0
13 22.09 ЮЗ 4 н/о н/о +12.6 +1.9 48 +11 +11 1028.5 997.7
14 22.09 Ю 3 н/о н/о +11.9 +2.1 51 +11 +11 1028.7 997.9 +18.9
16 22.09 Ю 5 н/о н/о +10.7 +3.5 61 +8 +8 1028.8 998.0
17 22.09 Ю 5 н/о н/о +10.1 +3.6 64 +7 +7 1028.4 997.6
19 22.09 Ю 4 н/о н/о +8.1 +3.8 74 +5 +5 1028.7 997.9
20 22.09 штиль 0 н/о н/о +6.4 +3.0 79 +6 +6 1029.3 998.5
22 22.09 Ю 2 н/о н/о +10.1 +4.7 69 +9 +9 1030.7 999.8
23 22.09 Ю 4 н/о н/о +12.8 +5.0 59 +11 +11 1031.1 1000.2
01 23.09 Ю 5 н/о н/о +15.9 +3.4 43 +15 +15 1030.9 1000.0
02 23.09 Ю 5 н/о н/о +16.7 +0.8 34 +16 +16 1029.7 998.9 +6.3
04 23.09 ЮЗ 6 н/о н/о +18.9 -1.0 26 +19 +19 1028.8 998.0
05 23.09 Ю 7 н/о н/о +19.1 +0.7 29 +19 +19 1027.9 997.1
07 23.09 ЮЗ 7 н/о н/о +18.5 +1.5 32 +18 +18 1027.6 996.8
08 23.09 Ю 7 н/о н/о +17.7 +1.2 33 +17 +17 1028.1 997.3
10 23.09 Ю 6 н/о н/о +15.4 +1.5 39 +14 +14 1028.7 997.9
11 23.09 Ю 5 н/о н/о +14.8 +1.7 41 +14 +14 1029.3 998.5
13 23.09 Ю 4 н/о н/о +13.4 +1.7 45 +12 +12 1029.3 998.5
14 23.09 Ю 5 н/о н/о +11.8 +2.0 51 +10 +10 1029.3 998.5 +19.9
16 23.09 Ю 3 н/о н/о +11.1 +1.6 52 +10 +10 1029.0 998.2
17 23.09 Ю 2 н/о н/о +9.6 +1.5 57 +8 +8 1028.6 997.8

 

Местоположение метеостанции Ли-Крик (Южная Австралия, Австралия): широта -30.60 долгота 138.42 высота над уровнем моря 11 м.

В архиве по умолчанию представлена погода в Ли-Крике за последнюю неделю. Архивные данные за месяц целиком и за предыдущие месяцы, начиная с января 2011 года, Вы можете получить, выбрав интересующий диапазон дат из раскрывающегося списка и нажав кнопку "Ввод!".


*Определитесь, кто Вы:
робот инопланетянин человек

Внимание! Время в таблицах - всемирное. Для получения местного времени необходимо прибавить поправку, которая равна 9.5 ч.

Смотрите также архив погоды в соседних городах и на ближайших метеорологических станциях:

Погода в Марри (Южная Австралия, Австралия) (110 км)
Погода в Олимпик Дэм (Южная Австралия, Австралия) (148 км)
Погода на Аэродроме Вумера (Южная Австралия, Австралия) (165 км)
Погода в Порт Огаста (Южная Австралия, Австралия) (224 км)
Погода в Юнте (Южная Австралия, Австралия) (245 км)
Погода в Уиолле (Южная Австралия, Австралия) (288 км)
Погода в Фоулерс Гэп (Новый Южный Уэльс, Австралия) (318 км)
Погода в Мумбе (Южная Австралия, Австралия) (327 км)
Погода в Брокен-Хилл аэропорту (Новый Южный Уэльс, Австралия) (328 км)
Погода в Сноутауне (Южная Австралия, Австралия) (354 км)

Пояснения к столбцам:

Ветер - указаны скорость ветра в м/с - средняя за 10 мин, порывы в срок и между сроками (в фигурных скобках) и направление, откуда дует ветер: С - северный, СВ - северо-восточный, В - восточный, ЮВ - юго-восточный, Ю - южный, ЮЗ - юго-западный, З - западный, СЗ - северо-западный.
Видимость - горизонтальная дальность видимости в метрах или километрах. При видимости от 1 до 10 км при отсутствии осадков обычно наблюдается дымка, при ухудшении видимости до 1 км и менее - туман. В сухую погоду видимость может ухудшаться дымом, пылью или мглою.
Явления - указаны атмосферные явления, наблюдавшиеся в срок или в последний час перед сроком; фигурными скобками обозначены явления, наблюдавшиеся между сроками (за 1-3 часа до срока); квадратными скобками обозначены град или гололедные отложения с указанием их диаметра в мм.
Облачность - указаны через наклонную черту общая и нижняя облачность в баллах и высота нижней границы облаков в метрах; квадратными скобками обозначены формы облаков: Ci - перистые, Cs - перисто-слоистые, Cc - перисто-кучевые, Ac - высококучевые, As - высокослоистые, Sc - слоисто-кучевые, Ns - слоисто-дождевые, Cu - кучевые, Cb - кучево-дождевые. Подробнее классификацию облаков см. в Атласе облаков (PDF).
T - Температура воздуха - температура, измеренная на высоте 2 м над землей.
Td - Температура точки росы - температура, при понижении до которой содержащийся в воздухе водяной пар достигнет насыщения.
f - Относительная влажность воздуха - влажноcть воздуха, измеренная на высоте 2 м над землей.
Te - Эффективная температура - температура, которую ощущает одетый по сезону человек в тени. Характеристика душности погоды. При расчете учитывается влияние влажности воздуха и скорости ветра на теплоощущения человека.
Tes - Эффективная температура на солнце - температура, которую ощущает человек, с поправкой на солнечный нагрев. Характеристика знойности погоды. Зависит от высоты солнца над горизонтом, облачности и скорости ветра. Ночью, в пасмурную погоду, а также при ветре 12 м/с и более поправка равна нулю.
P - Атмосферное давление - приведенное к уровню моря атмосферное давление.
Po - Атмосферное давление - измеренное на уровне метеостанции атмосферное давление.
Tmin - Минимальная температура - минимум температуры воздуха на высоте 2 м над землей.
Tmax - Максимальная температура - максимум температуры воздуха на высоте 2 м над землей.
R - Количество осадков - Количество выпавших осадков за период времени, мм. При наведении курсора мыши на число - период времени, за который выпало указанное количество осадков.
R24 - Количество осадков - Количество выпавших осадков за 24 часа, мм.
S - Снежный покров - Высота снежного покрова, см. При наведении курсора мыши на число - состояние снежного покрова и степень покрытия местности в баллах.